"Pseudo-MPEC" for P10Nz3I

Created 2019 May 21 8:07:21 UT using Find_Orb

Click here for an explanation of pseudo-MPECs

 
 Astrometry: 
     P10Nz3I  C2019 05 07HF\I_suJ1b=+eKUVV%r.L\p_9_JJ/fvX2X[K+VOrl^rW:N6f]cI-F51
     P10Nz3I  C2019 05 07blfUlb3Xtn*%%Yvwx[RUPZlq/?$1(JkH]emo_S?Ag;rm9.yH^Y:TF51
     P10Nz3I  C2019 05 07Q#t/4VZ%$:i-2)#?HD,=qy0%AstrometryRX=redacted;2Mq=PEF51
     P10Nz3I HC2019 05 09L?U`D4T;#'`?FbdS%5,5:_n1Ku\hK(clicknj7UiK/*)%eiE1Rc1291
     P10Nz3I KC2019 05 09xKGldo#5j_#ogq:Y)*jggo,W:=c#\NUaOGKDJ`h0=8Q4R0;5o+V\291
     P10Nz3I KC2019 05 14TbmoY0Lo_(V4O[3uU08m;'yBhu'D1[`hereY*@iW5(_lqh'^h#9RH21
     P10Nz3I KC2019 05 14;anB`N)Iy'45hm?.]Pw?5i6$KtFNhSiO!2iO*rx*2?B8P=iM\XqMH21
     P10Nz3I KC2019 05 146B!]pij9rk%@0hr:B*3ddKn[nvforrMGyci9Dj,p[22!v!MjC2#bH21
     P10Nz3I KC2019 05 15v(V2wR^Jy]gB7h5[2vRnbI^?wN=/+%_3[K0h/4AF^D-s0)%$kD(O291
     P10Nz3I KC2019 05 15=YWZBb9[POa`=explanationpO8=+VUOdN_GT9RBo3P/CjlrQ-56291

Station data:
(291) LPL/Spacewatch II  (N31.961669 W111.599905)  US/Arizona.  Observers J.
   V. Scotti, R. S. McMillan. 1.8-m f/2.7 reflector + CCD.
(F51) Pan-STARRS 1, Haleakala  (N20.707235 W156.255910)  US/Hawaii.
   Observers N. Primak, A. Schultz, S. Watters, J. Thiel, T. Goggia. Measurer
   PS1 Science Consortium. 1.8-m Ritchey-Chrétien + CCD.
(H21) Astronomical Research Observatory, Westfield  (N39.483057 W87.968270)
   US/Illinois. 0.76-m f/3.0 astrograph + CCD.

Orbital elements:  P10Nz3I
   Perihelion 2019 Apr 18.329572 +/- 0.385 TT =  7:54:35 (JD 2458591.829572)
Epoch 2019 May 15.0 TT = JDT 2458618.5   Earth MOID: 0.2412   AutoNEOCP
M  13.42439833 +/- 0.33             (J2000 ecliptic)
n   0.50334394 +/- 0.00503          Peri.  136.80712 +/- 0.40
a   1.56516266 +/- 0.0104           Node    77.87465 +/- 0.034
e   0.2262879 +/- 0.00331           Incl.   17.53187 +/- 0.20
P   1.96/715.20d           H 23.1   G  0.15   U  9.2  
q 1.21098522 +/- 0.00283    Q 1.91934010 +/- 0.0177
From 10 observations 2019 May 7-15; mean residual 0".19
Residuals in arcseconds: 
190507 F51  .11-  .04+    190509 291  .01-  .27-    190515 291  .14+  .07+    
190507 F51  .09+  .05-    190514 H21  .02-  .19-    190515 291  .34-  .03-    
190507 F51  .15+  .01-    190514 H21  .12-  .14+    
190509 291  .18-  .30+    190514 H21  .48+  .00     

Ephemerides (geocentric):
Date (UTC) HH   RA              Dec         delta   r     elong  mag " sig PA
---- -- -- --  -------------   -----------  ------ ------ -----  --- ---- ---
2019 05 21 08  16 57 44.172   +02 49 29.17  .24717 1.2352 151.7 21.6 4.18 116
2019 05 21 09  16 57 40.843   +02 46 51.71  .24711 1.2353 151.8 21.6 4.21 116
2019 05 21 10  16 57 37.509   +02 44 14.10  .24706 1.2354 151.8 21.6 4.25 116
2019 05 21 11  16 57 34.171   +02 41 36.35  .24700 1.2354 151.9 21.6 4.29 116
2019 05 21 12  16 57 30.827   +02 38 58.46  .24695 1.2355 152.0 21.6 4.33 116
2019 05 21 13  16 57 27.479   +02 36 20.43  .24689 1.2355 152.0 21.6 4.37 117
2019 05 21 14  16 57 24.127   +02 33 42.26  .24684 1.2356 152.1 21.6 4.40 117
2019 05 21 15  16 57 20.770   +02 31 03.94  .24679 1.2357 152.1 21.6 4.44 117
2019 05 21 16  16 57 17.408   +02 28 25.49  .24674 1.2357 152.2 21.6 4.48 117
2019 05 21 17  16 57 14.042   +02 25 46.90  .24668 1.2358 152.3 21.6 4.52 117
2019 05 21 18  16 57 10.671   +02 23 08.17  .24663 1.2358 152.3 21.6 4.56 117
2019 05 21 19  16 57 07.295   +02 20 29.30  .24658 1.2359 152.4 21.6 4.60 117
2019 05 21 20  16 57 03.915   +02 17 50.29  .24653 1.2360 152.5 21.6 4.64 118
2019 05 21 21  16 57 00.530   +02 15 11.14  .24648 1.2360 152.5 21.6 4.67 118
2019 05 21 22  16 56 57.141   +02 12 31.86  .24643 1.2361 152.6 21.6 4.71 118
2019 05 21 23  16 56 53.747   +02 09 52.44  .24638 1.2361 152.6 21.6 4.75 118
2019 05 22 00  16 56 50.349   +02 07 12.88  .24632 1.2362 152.7 21.6 4.79 118
2019 05 22 01  16 56 46.946   +02 04 33.18  .24627 1.2363 152.8 21.6 4.83 118
2019 05 22 02  16 56 43.539   +02 01 53.35  .24622 1.2363 152.8 21.6 4.87 119
2019 05 22 03  16 56 40.127   +01 59 13.39  .24618 1.2364 152.9 21.6 4.92 119
2019 05 22 04  16 56 36.710   +01 56 33.29  .24613 1.2364 152.9 21.6 4.96 119
2019 05 22 05  16 56 33.290   +01 53 53.05  .24608 1.2365 153.0 21.6 5.00 119
2019 05 22 06  16 56 29.864   +01 51 12.68  .24603 1.2366 153.1 21.6 5.04 119
2019 05 22 07  16 56 26.435   +01 48 32.17  .24598 1.2366 153.1 21.6 5.08 119
2019 05 22 08  16 56 23.000   +01 45 51.54  .24593 1.2367 153.2 21.6 5.12 119
2019 05 22 09  16 56 19.562   +01 43 10.77  .24588 1.2368 153.3 21.6 5.16 120
2019 05 22 10  16 56 16.119   +01 40 29.86  .24584 1.2368 153.3 21.6 5.20 120
2019 05 22 11  16 56 12.671   +01 37 48.83  .24579 1.2369 153.4 21.5 5.25 120
2019 05 22 12  16 56 09.219   +01 35 07.66  .24574 1.2369 153.4 21.5 5.29 120
2019 05 22 13  16 56 05.763   +01 32 26.36  .24570 1.2370 153.5 21.5 5.33 120
2019 05 22 14  16 56 02.303   +01 29 44.93  .24565 1.2371 153.6 21.5 5.37 120
2019 05 22 15  16 55 58.838   +01 27 03.37  .24560 1.2371 153.6 21.5 5.42 121
2019 05 22 16  16 55 55.369   +01 24 21.68  .24556 1.2372 153.7 21.5 5.46 121
2019 05 22 17  16 55 51.895   +01 21 39.85  .24551 1.2372 153.7 21.5 5.50 121
2019 05 22 18  16 55 48.417   +01 18 57.90  .24547 1.2373 153.8 21.5 5.55 121
2019 05 22 19  16 55 44.935   +01 16 15.82  .24542 1.2374 153.9 21.5 5.59 121
2019 05 22 20  16 55 41.448   +01 13 33.62  .24538 1.2374 153.9 21.5 5.63 121
2019 05 22 21  16 55 37.957   +01 10 51.28  .24534 1.2375 154.0 21.5 5.68 121
2019 05 22 22  16 55 34.462   +01 08 08.82  .24529 1.2376 154.1 21.5 5.72 122
2019 05 22 23  16 55 30.963   +01 05 26.23  .24525 1.2376 154.1 21.5 5.77 122
2019 05 23 00  16 55 27.459   +01 02 43.51  .24520 1.2377 154.2 21.5 5.81 122
2019 05 23 01  16 55 23.952   +01 00 00.66  .24516 1.2377 154.2 21.5 5.86 122
2019 05 23 02  16 55 20.439   +00 57 17.69  .24512 1.2378 154.3 21.5 5.90 122
2019 05 23 03  16 55 16.923   +00 54 34.60  .24508 1.2379 154.4 21.5 5.95 122
2019 05 23 04  16 55 13.403   +00 51 51.38  .24503 1.2379 154.4 21.5 5.99 123
2019 05 23 05  16 55 09.878   +00 49 08.03  .24499 1.2380 154.5 21.5 6.04 123
2019 05 23 06  16 55 06.349   +00 46 24.57  .24495 1.2381 154.6 21.5 6.08 123
2019 05 23 07  16 55 02.816   +00 43 40.97  .24491 1.2381 154.6 21.5 6.13 123